GW5398 Weather Reports


time (UTC)temp
F
wind
direction
speed
knots
gust
knots
rain 1hr
in
rain 24hr
in
rain mn
in
humidity
%
barometer
mb
20260504050509 53 132 0.0 0.0 0.00 0.00 0.00 91 1010.5
20260504050013 53 132 0.0 0.0 0.00 0.00 0.00 91 1010.5
20260504045510 54 153 0.0 0.0 0.00 0.00 0.00 91 1010.5
20260504045009 54 152 0.0 0.0 0.00 0.00 0.00 91 1010.5
20260504044510 54 159 0.0 0.9 0.00 0.00 0.00 91 1010.5
20260504044009 54 164 0.0 0.0 0.00 0.00 0.00 91 1010.5
20260504043509 53 143 0.0 0.0 0.00 0.00 0.00 92 1010.5
20260504043010 53 142 0.0 0.0 0.00 0.00 0.00 91 1010.5
20260504042511 53 142 0.0 0.0 0.00 0.00 0.00 91 1010.5
20260504042012 53 141 0.0 0.0 0.00 0.00 0.00 91 1010.8
20260504041509 53 149 0.0 0.0 0.00 0.00 0.00 91 1010.8
20260504041010 53 149 0.0 0.0 0.00 0.00 0.00 91 1010.8
20260504040509 53 151 0.0 1.7 0.00 0.00 0.00 90 1010.8
20260504035520 53 173 0.9 0.9 0.00 0.00 0.00 91 1010.8
20260504035010 53 142 0.0 0.0 0.00 0.00 0.00 91 1010.8
20260504034509 53 139 0.0 0.9 0.00 0.00 0.00 91 1010.8
20260504034009 53 97 0.9 2.6 0.00 0.00 0.00 91 1010.8
20260504033509 53 65 1.7 2.6 0.00 0.00 0.00 91 1010.5
20260504033011 54 143 0.0 0.0 0.00 0.00 0.00 91 1010.8
20260504032509 54 146 0.0 0.0 0.00 0.00 0.00 91 1010.8
20260504032011 54 146 0.0 0.0 0.00 0.00 0.00 91 1011.2
20260504031509 53 146 0.0 0.0 0.00 0.00 0.00 91 1011.2
20260504031010 53 141 0.0 0.0 0.00 0.00 0.00 91 1011.2
20260504030509 53 140 0.0 0.9 0.00 0.00 0.00 91 1011.2
20260504030009 53 95 0.9 0.9 0.00 0.00 0.00 91 1011.2
20260504025510 53 142 0.0 0.9 0.00 0.00 0.00 91 1011.2
20260504025009 53 98 1.7 2.6 0.00 0.00 0.00 91 1011.2
20260504024509 53 123 0.9 1.7 0.00 0.00 0.00 91 1011.5
20260504024009 53 110 0.9 0.9 0.00 0.00 0.00 91 1011.2
20260504023510 53 130 0.0 0.0 0.00 0.00 0.00 91 1011.2
20260504023010 53 133 0.0 0.0 0.00 0.00 0.00 90 1011.5
20260504022510 53 143 0.0 0.0 0.00 0.00 0.00 90 1011.2
20260504022010 53 137 0.0 0.0 0.00 0.00 0.00 90 1011.2
20260504021509 53 134 0.0 0.0 0.00 0.00 0.00 89 1011.2
20260504021009 53 153 0.0 4.3 0.00 0.00 0.00 90 1011.2
20260504020510 53 207 0.9 1.7 0.00 0.00 0.00 90 1011.2
20260504020010 52 159 0.0 0.9 0.00 0.00 0.00 90 1011.2
20260504015510 52 164 0.0 0.9 0.00 0.00 0.00 90 1011.2
20260504015010 52 166 0.0 0.9 0.00 0.00 0.00 90 1011.2
20260504014509 52 168 0.9 0.9 0.00 0.00 0.00 90 1011.2
20260504014010 51 154 0.0 0.0 0.00 0.00 0.00 90 1011.2
20260504013510 50 138 0.0 0.0 0.00 0.00 0.00 89 1011.2
20260504013010 51 138 0.0 0.0 0.00 0.00 0.00 89 1011.2
20260504012509 50 140 0.0 0.0 0.00 0.00 0.00 89 1011.2
20260504012010 50 142 0.0 0.0 0.00 0.00 0.00 88 1011.5
20260504011509 50 139 0.0 0.0 0.00 0.00 0.00 88 1011.5
20260504011010 51 142 0.0 0.0 0.00 0.00 0.00 87 1011.5
20260504010510 51 162 0.0 0.9 0.00 0.00 0.00 88 1011.9
20260504010009 51 243 0.9 1.7 0.00 0.00 0.00 89 1011.9
20260504005516 50 142 0.0 0.0 0.00 0.00 0.00 89 1011.9
20260504005010 50 140 0.0 0.0 0.00 0.00 0.00 89 1011.9
20260504004511 50 135 0.9 0.9 0.00 0.00 0.00 89 1011.9
20260504004009 50 136 0.0 0.0 0.00 0.00 0.00 89 1012.2
20260504003510 50 136 0.0 0.0 0.00 0.00 0.00 89 1011.9
20260504003009 50 134 0.0 0.0 0.00 0.00 0.00 88 1012.2
20260504002510 50 135 0.0 0.0 0.00 0.00 0.00 88 1011.9
20260504002009 50 135 0.0 0.0 0.00 0.00 0.00 88 1011.9
20260504001510 50 132 0.0 0.0 0.00 0.00 0.00 88 1012.2
20260504001009 50 132 0.0 0.0 0.00 0.00 0.00 87 1012.2
20260504000510 50 139 0.0 0.0 0.00 0.00 0.00 87 1011.9
20260504000009 50 141 0.0 0.0 0.00 0.00 0.00 86 1012.2
20260503235509 50 148 0.0 0.0 0.00 0.00 0.00 86 1012.5
20260503235009 50 135 0.0 0.0 0.00 0.00 0.00 86 1012.2
20260503234510 51 131 0.0 0.0 0.00 0.00 0.00 85 1012.2
20260503234009 51 140 0.0 0.9 0.00 0.00 0.00 84 1012.2
20260503233510 52 183 0.9 0.9 0.00 0.00 0.00 84 1011.9
20260503233010 51 173 0.9 0.9 0.00 0.00 0.00 84 1012.2
20260503232509 52 146 0.0 0.0 0.00 0.00 0.00 83 1011.9
20260503232010 52 139 0.0 0.9 0.00 0.00 0.00 82 1011.9
20260503231509 52 166 0.0 1.7 0.00 0.00 0.00 81 1012.2
20260503231011 52 168 0.0 0.9 0.00 0.00 0.00 83 1011.9
20260503230510 52 154 0.0 0.9 0.00 0.00 0.00 83 1011.9
20260503230009 53 137 0.0 0.9 0.00 0.00 0.00 83 1012.2
20260503225510 53 128 0.0 0.9 0.00 0.00 0.00 83 1012.2
20260503225009 54 132 0.0 0.0 0.00 0.00 0.00 82 1012.2
20260503224512 54 143 0.0 0.9 0.00 0.00 0.00 82 1012.5
20260503224009 54 137 0.0 0.9 0.00 0.00 0.00 82 1012.2
20260503223510 54 150 0.0 0.0 0.00 0.00 0.00 82 1012.2
20260503223009 54 151 0.0 0.0 0.00 0.00 0.00 82 1011.9
20260503222509 53 150 0.9 0.9 0.00 0.00 0.00 82 1012.2
20260503222009 54 140 0.0 0.0 0.00 0.00 0.00 83 1011.9
20260503221510 54 141 0.0 0.0 0.00 0.00 0.00 83 1011.9
20260503221009 55 125 0.0 0.9 0.00 0.00 0.00 82 1011.9
20260503220509 55 139 0.0 0.0 0.00 0.00 0.00 81 1011.9
20260503220009 54 145 0.0 0.0 0.00 0.00 0.00 80 1011.9
20260503215510 54 145 0.0 0.0 0.00 0.00 0.00 81 1011.9
20260503215009 54 139 0.0 0.0 0.00 0.00 0.00 82 1011.9
20260503214510 54 155 0.0 0.9 0.00 0.00 0.00 82 1011.9
20260503214010 55 135 0.0 0.0 0.00 0.00 0.00 82 1011.9
20260503213510 56 148 0.0 0.0 0.00 0.00 0.00 82 1011.5
20260503213012 56 147 0.0 0.9 0.00 0.00 0.00 80 1011.2
20260503212510 56 154 0.0 0.9 0.00 0.00 0.00 79 1011.5
20260503212009 56 137 0.0 0.9 0.00 0.00 0.00 78 1011.5
20260503211509 56 164 0.0 0.9 0.00 0.00 0.00 78 1011.5
20260503211010 56 184 0.9 0.9 0.00 0.00 0.00 79 1011.5
20260503210510 56 161 0.0 0.9 0.00 0.00 0.00 79 1011.5
20260503210010 56 162 0.9 0.9 0.00 0.00 0.00 79 1011.2
20260503205510 56 128 0.0 0.9 0.00 0.00 0.00 78 1011.5
20260503205009 55 104 2.6 4.3 0.00 0.00 0.00 79 1011.5
20260503204510 55 170 0.9 1.7 0.00 0.00 0.00 84 1011.9
20260503204009 56 147 0.0 0.9 0.00 0.00 0.00 85 1011.9
20260503203510 55 154 0.9 0.9 0.00 0.00 0.00 84 1012.2
20260503203011 56 116 0.9 0.9 0.00 0.00 0.00 86 1011.5
20260503202510 56 154 0.0 0.9 0.00 0.00 0.00 86 1011.9
20260503202009 56 149 0.0 0.0 0.00 0.00 0.00 86 1011.9
20260503201509 56 143 0.0 0.0 0.00 0.00 0.00 85 1011.9
20260503201009 56 154 0.0 0.0 0.00 0.00 0.00 85 1011.9
20260503200510 56 148 0.0 0.0 0.00 0.00 0.00 84 1011.9
20260503200009 56 147 0.0 0.9 0.00 0.00 0.00 84 1011.9
20260503195509 56 171 0.9 0.9 0.00 0.00 0.00 85 1011.9
20260503195010 56 138 0.0 0.9 0.00 0.00 0.00 85 1012.2
20260503194509 56 174 0.9 1.7 0.00 0.00 0.00 86 1011.9
20260503194010 56 155 0.0 0.9 0.00 0.00 0.00 87 1011.9
20260503193509 56 148 0.0 0.0 0.00 0.00 0.00 87 1011.9
20260503193009 56 163 0.9 1.7 0.00 0.00 0.00 87 1011.9
20260503192511 56 131 0.9 1.7 0.00 0.00 0.00 87 1011.9
20260503192009 56 123 1.7 1.7 0.00 0.00 0.00 88 1011.2
20260503191511 56 152 0.9 0.9 0.00 0.00 0.00 87 1011.5
20260503191010 57 153 0.9 1.7 0.00 0.00 0.00 87 1011.5
20260503190510 57 149 1.7 5.2 0.00 0.00 0.00 87 1011.5
20260503190010 57 188 0.9 1.7 0.00 0.00 0.00 86 1011.5
20260503185510 57 186 2.6 2.6 0.00 0.00 0.00 86 1011.2
20260503185009 57 134 0.9 2.6 0.00 0.00 0.00 86 1011.5
20260503184509 57 162 2.6 2.6 0.00 0.00 0.00 85 1011.2
20260503184009 57 164 0.9 5.2 0.00 0.00 0.00 86 1011.5
20260503183511 57 132 0.0 2.6 0.00 0.00 0.00 87 1011.2
20260503183011 57 154 0.9 1.7 0.00 0.00 0.00 86 1011.2
20260503182509 57 227 1.7 4.3 0.00 0.00 0.00 86 1011.2
20260503182011 57 119 0.9 5.2 0.00 0.00 0.00 86 1011.2
20260503181511 57 177 1.7 4.3 0.00 0.00 0.00 86 1011.2
20260503181011 58 179 3.5 5.2 0.00 0.00 0.00 86 1011.2
20260503180509 57 170 1.7 4.3 0.00 0.00 0.00 86 1011.2
20260503180009 58 184 2.6 4.3 0.00 0.00 0.00 87 1011.2
20260503175510 58 148 0.9 2.6 0.00 0.00 0.00 86 1011.2
20260503175010 58 163 0.9 1.7 0.00 0.00 0.00 86 1011.2
20260503174510 58 161 1.7 4.3 0.00 0.00 0.00 86 1011.2
20260503174009 58 169 2.6 2.6 0.00 0.00 0.00 86 1011.2
20260503173510 58 159 0.9 1.7 0.00 0.00 0.00 87 1011.2
20260503173009 58 221 1.7 2.6 0.00 0.00 0.00 87 1010.8
20260503172509 58 144 1.7 2.6 0.00 0.00 0.00 86 1011.2
20260503172012 58 156 0.9 2.6 0.00 0.00 0.00 85 1011.2
20260503171511 59 182 1.7 4.3 0.00 0.00 0.00 85 1010.8
20260503171012 58 218 2.6 2.6 0.00 0.00 0.00 85 1010.8
20260503170510 59 153 1.7 4.3 0.00 0.00 0.00 84 1011.2
20260503151011 61 110 0.9 1.7 0.00 0.00 0.00 73 1010.2
20260503150509 61 145 1.7 2.6 0.00 0.00 0.00 72 1010.5
20260503131036 60 179 0.9 1.7 0.00 0.00 0.00 78 1011.5
20260503130512 60 137 1.7 4.3 0.00 0.00 0.00 79 1011.9
20260503110713 59 183 4.3 6.1 0.00 0.00 0.00 85 1013.5
20260503110214 59 138 1.7 4.3 0.00 0.00 0.00 85 1013.5
20260503100212 60 149 0.0 4.3 0.00 0.00 0.00 75 1013.5
20260503090213 59 151 0.9 4.3 0.00 0.00 0.00 81 1013.2
20260503081215 59 146 0.9 4.3 0.00 0.00 0.00 82 1013.2
20260503080712 60 141 0.0 1.7 0.00 0.00 0.00 79 1013.5
20260503080220 59 175 0.9 2.6 0.00 0.00 0.00 80 1013.2
20260503072712 59 183 0.9 1.7 0.00 0.00 0.00 83 1013.5
20260503072214 58 163 0.9 0.9 0.00 0.00 0.00 84 1013.5
20260503071712 58 191 1.7 1.7 0.00 0.00 0.00 85 1013.9
20260503071213 58 134 1.7 1.7 0.00 0.00 0.00 85 1013.9
20260503070713 58 169 0.9 2.6 0.00 0.00 0.00 86 1013.5
20260503070212 58 157 0.0 1.7 0.00 0.00 0.00 84 1013.9